Location: Newark
(48.3453°N, 0.5589°E)
Time: 02:47:34
(UTC+00:00)

A-11 Canister half - Pass Details

Date: 11 December 2019
Orbit: 1517 x 1683 km, 47.2° (Epoch: 28 January)

Event Time Altitude Azimuth Distance (km) Brightness Sun altitude
Rises 17:54:41 0° 290° (WNW) 4,874 12.6 -17.6°
Reaches altitude 10° 17:57:59 10° 284° (WNW) 3,904 12.0 -18.1°
Maximum altitude 18:07:11 43° 218° (SW) 2,216 10.2 -19.6°
Drops below altitude 10° 18:16:30 10° 151° (SSE) 3,938 11.0 -21.1°
Sets 18:19:51 0° 145° (SE) 4,919 11.4 -21.6°
